Pellston, MI

7:01 PM EDT on April 23, 2017 (GMT -0400)
Pellston Regional Airport Of Emmet County

Weather History for KPLN - November, 2012

Change the Weather History Date:

Sunday, November 18, 2012

  Actual Average Record
Temperature  
Mean Temperature 40 °F -  
Max Temperature 55 °F 41 °F 68 °F (2016)
Min Temperature 25 °F 27 °F 9 °F (1959)
Degree Days  
Heating Degree Days 25    
Moisture  
Dew Point 28 °F    
Average Humidity 80    
Maximum Humidity 100    
Minimum Humidity 33    
Precipitation  
Precipitation 0.00 in - - ()
Sea Level Pressure  
Sea Level Pressure 30.48 in    
Wind  
Wind Speed 1 mph (SSE)    
Max Wind Speed 8 mph    
Max Gust Speed -    
Visibility 6 miles    
Events Fog    
Averages and records for this station are not official NWS values.
T = Trace of Precipitation, MM = Missing Value Source: NWS Daily Summary

Daily Weather History Graph

Daily Weather History Graph

Search for Another Location

Airport or City:

Trip Planner

Search our weather history database for the weather conditions in past years. The results will help you decide how hot, cold, wet, or windy it might be!

Date:

Astronomy

Nov. 18, 2012 Rise Set
Actual Time 7:43 AM EST 5:05 PM EST
Civil Twilight 7:10 AM EST 5:37 PM EST
Nautical Twilight 6:34 AM EST 6:13 PM EST
Astronomical Twilight 5:59 AM EST 6:49 PM EST
Moon 12:06 PM EST (11/18) 10:28 PM EST (11/18)
Length of Visible Light 10h 27m
Length of Day
9h 22m
Waxing Crescent, 30% of the Moon is Illuminated
Nov 18
Waxing Crescent
Nov 20
First Quarter
Nov 28
Full
Dec 6
Last Quarter
Dec 13
New

Hourly Weather History & Observations

Time (EST) Temp. Windchill Dew Point Humidity Pressure Visibility Wind Dir Wind Speed Gust Speed Precip Events Conditions
12:40 AM 28.4 °F - 28.4 °F 100% 30.50 in 0.5 mi Calm Calm - N/A Fog Light Freezing Fog
12:54 AM 28.9 °F - 28.0 °F 96% 30.53 in 0.5 mi Calm Calm - N/A Fog Light Freezing Fog
1:01 AM 28.4 °F - 28.4 °F 100% 30.50 in 0.8 mi Calm Calm - N/A   Overcast
1:32 AM 28.4 °F - 26.6 °F 93% 30.50 in 0.5 mi Calm Calm - N/A Fog Light Freezing Fog
1:54 AM 28.0 °F - 27.0 °F 96% 30.53 in 0.5 mi Calm Calm - N/A Fog Light Freezing Fog
2:08 AM 26.6 °F - 26.6 °F 100% 30.50 in 0.2 mi Calm Calm - N/A Fog Light Freezing Fog
2:16 AM 28.4 °F - 26.6 °F 93% 30.50 in 1.0 mi Calm Calm - N/A   Mist
2:20 AM 28.4 °F - 26.6 °F 93% 30.50 in 2.0 mi Calm Calm - N/A   Partly Cloudy
2:41 AM 28.4 °F - 26.6 °F 93% 30.50 in 1.5 mi Calm Calm - N/A   Clear
2:54 AM 28.0 °F - 27.0 °F 96% 30.53 in 3.0 mi Calm Calm - N/A   Clear
3:54 AM 26.1 °F - 24.1 °F 92% 30.52 in 5.0 mi Calm Calm - N/A   Clear
4:54 AM 26.1 °F 21.9 °F 23.0 °F 88% 30.51 in 6.0 mi ESE 3.5 mph - N/A   Clear
5:54 AM 25.0 °F - 23.0 °F 92% 30.52 in 7.0 mi Calm Calm - N/A   Clear
6:54 AM 26.1 °F - 24.1 °F 92% 30.51 in 5.0 mi Calm Calm - N/A   Clear
7:54 AM 28.0 °F - 26.1 °F 92% 30.52 in 5.0 mi Calm Calm - N/A   Clear
8:54 AM 32.0 °F 27.5 °F 30.9 °F 96% 30.51 in 2.5 mi South 4.6 mph - N/A   Clear
9:28 AM 33.8 °F - 33.8 °F 100% 30.48 in 3.0 mi Calm Calm - N/A   Clear
9:54 AM 37.0 °F 33.3 °F 35.1 °F 93% 30.51 in 4.0 mi SE 4.6 mph - N/A   Clear
10:54 AM 44.1 °F 41.5 °F 36.0 °F 73% 30.51 in 9.0 mi SSE 4.6 mph - N/A   Clear
11:54 AM 50.0 °F - 36.0 °F 59% 30.49 in 10.0 mi SSE 6.9 mph - N/A   Clear
12:54 PM 53.1 °F - 32.0 °F 45% 30.46 in 10.0 mi SSE 5.8 mph - N/A   Clear
1:54 PM 55.9 °F - 30.0 °F 37% 30.45 in 10.0 mi South 8.1 mph - N/A   Clear
3:54 PM 55.9 °F - 27.0 °F 33% 30.42 in 10.0 mi South 4.6 mph - N/A   Clear
4:54 PM 50.0 °F - 28.0 °F 43% 30.43 in 10.0 mi SE 4.6 mph - N/A   Clear
5:54 PM 39.9 °F - 27.0 °F 60% 30.43 in 10.0 mi Calm Calm - N/A   Clear
6:54 PM 35.1 °F - 26.1 °F 70% 30.43 in 10.0 mi Calm Calm - N/A   Clear
7:54 PM 37.9 °F 33.5 °F 26.1 °F 62% 30.43 in 10.0 mi SE 5.8 mph - N/A   Clear
8:54 PM 37.9 °F 33.5 °F 26.1 °F 62% 30.42 in 10.0 mi SE 5.8 mph - N/A   Clear
9:54 PM 39.9 °F 36.7 °F 28.9 °F 65% 30.41 in 10.0 mi SSE 4.6 mph - N/A   Clear
10:54 PM 30.9 °F - 25.0 °F 79% 30.41 in 10.0 mi Calm Calm - N/A   Clear
11:54 PM 37.0 °F 31.6 °F 30.0 °F 76% 30.39 in 10.0 mi SSE 6.9 mph - N/A   Partly Cloudy